Home   Weather   Rostov-on-Don   Past weeks

Flag for Russia Past Weather in Rostov-on-Don, Russia — Yesterday and Last 2 Weeks

Now
50 °F

Passing clouds.


Feels Like: 49 °F
Forecast: 45 / 57 °F
Wind: 3 mph from West

Location: Rostov-Na-Donu

Current Time: Sep 29, 2016 at 1:23:40 AM

Latest Report: Sep 29, 2016 at 12:30 AM


Visibility: 5 mi

Pressure: 30.15 "Hg

Humidity: 82%

Dew Point: 45 °F

Location of Rostov-on-DonLocation

Past Weather in Rostov-on-Don — Graph

°F

Rostov-on-Don Temperature Yesterday

Maximum temperature yesterday: 54 °F (at 3:00 PM)
Minimum temperature yesterday: 46 °F (at 7:30 PM)
Average temperature yesterday: 51 °F

High & Low Weather Summary for the Past Weeks

 TemperatureHumidityPressure
High75 °F (Sep 14, 1:00 PM)94% (Sep 20, 5:00 AM)30.15 "Hg (Sep 20, 5:00 AM)
Low43 °F (Sep 23, 2:00 AM)27% (Sep 14, 2:00 PM)29.50 "Hg (Sep 21, 4:30 AM)
Average56 °F69%29.92 "Hg
* Reported Sep 14 12:00 AM — Sep 29 12:00 AM, Rostov-on-Don, Weather by CustomWeather, © 2016

Note: Actual official high and low records may vary slightly from our data, if they occured in-between our weather recording intervals... More about our weather records

Advertising

Rostov-on-Don Weather History for the Previous 24 Hours

Scroll right to see more
 ConditionsComfort  
Time TempWeatherWind HumidityBarometerVisibility
12:00 AM
Thu, Sep 29
50 °FClear.3 mph82%30.15 "Hg5 mi
11:30 PM
Wed, Sep 28
50 °FClear.3 mph82%30.15 "Hg5 mi
11:00 PM50 °FClear.3 mph82%30.15 "Hg5 mi
10:30 PM50 °FPassing clouds.3 mph76%30.15 "Hg5 mi
10:00 PM50 °FPassing clouds.3 mph82%30.15 "Hg5 mi
9:30 PM50 °FPassing clouds.3 mph82%30.15 "Hg4 mi
9:00 PM50 °FPassing clouds.3 mph76%30.15 "Hg4 mi
8:30 PM50 °FPassing clouds.3 mph82%30.15 "Hg4 mi
8:00 PM48 °FPassing clouds.1 mph82%30.15 "Hg4 mi
7:30 PM46 °FClear.1 mph87%30.15 "Hg4 mi
7:00 PM50 °FClear.1 mph76%30.15 "Hg5 mi
6:30 PM50 °FClear.1 mph76%30.15 "Hg5 mi
6:00 PM50 °FPassing clouds.3 mph76%30.12 "HgN/A
5:30 PM52 °FScattered clouds.6 mph72%30.12 "HgN/A
5:00 PM54 °FScattered clouds.6 mph67%30.12 "HgN/A
4:00 PM54 °FScattered clouds.6 mph67%30.12 "HgN/A
3:30 PM54 °FScattered clouds.6 mph72%30.12 "HgN/A
3:00 PM54 °FScattered clouds.3 mph72%30.09 "HgN/A
2:30 PM52 °FScattered clouds.6 mph77%30.09 "HgN/A
2:00 PM52 °FScattered clouds.10 mph72%30.09 "HgN/A
1:30 PM52 °FScattered clouds.6 mph77%30.09 "HgN/A
1:00 PM52 °FCool.8 mph77%30.09 "HgN/A
12:00 PM52 °FScattered clouds.8 mph77%30.09 "HgN/A
11:30 AM52 °FScattered clouds.8 mph77%30.09 "HgN/A
11:00 AM52 °FScattered clouds.6 mph77%30.09 "HgN/A
10:30 AM52 °FScattered clouds.6 mph77%30.09 "HgN/A
10:00 AM52 °FScattered clouds.6 mph77%30.09 "HgN/A
9:30 AM52 °FScattered clouds.8 mph82%30.09 "HgN/A
9:00 AM52 °FCool.6 mph82%30.09 "HgN/A
8:30 AM52 °FCool.6 mph82%30.07 "Hg5 mi
8:00 AM50 °FCool.6 mph88%30.07 "Hg5 mi
7:30 AM50 °FScattered clouds.6 mph88%30.07 "Hg5 mi
7:00 AM50 °FScattered clouds.6 mph88%30.07 "Hg5 mi
6:30 AM50 °FScattered clouds.3 mph88%30.07 "Hg5 mi
6:00 AM50 °FSprinkles. Passing clouds.3 mph88%30.07 "Hg4 mi
5:00 AM50 °FPassing clouds.3 mph88%30.07 "Hg5 mi
4:00 AM52 °FPassing clouds.6 mph82%30.07 "Hg5 mi
3:00 AM52 °FPassing clouds.3 mph82%30.07 "Hg5 mi
2:30 AM52 °FPassing clouds.6 mph82%30.07 "Hg5 mi
2:00 AM52 °FPassing clouds.3 mph82%30.07 "Hg5 mi
1:30 AM52 °FPassing clouds.3 mph88%30.07 "Hg5 mi
1:00 AM52 °FPassing clouds.3 mph88%30.07 "Hg5 mi
Weather by CustomWeather, © 2016

See weather overviewHow to use our weather pages